Flag for Netherlands Weather past 2 weeks in Rotterdam, Netherlands

Now
57 °F

Clear.


Feels Like: 54 °F
Forecast: 47 / 63 °F
Wind: 13 mph from East

Location: Rotterdam Zestienhoven Airport


UV Index: 0 (Low)

Visibility: N/A


Pressure: 29.62 "Hg

Humidity: 72%

Dew point: 48 °F

Location of RotterdamLocation

Historic Weather in Rotterdam

°F

Rotterdam temperature yesterday

Maximum temperature yesterday: 70 °F (at 2:55 PM)
Minimum temperature yesterday: 50 °F (at 1:25 AM)
Average temperature yesterday: 59 °F

Past Weeks' High & Low Weather Summary

 TemperatureHumidityPressure
High70 °F (Apr 20, 2:55 PM)100% (Apr 7, 6:55 PM)30.45 "Hg (Apr 7, 6:55 PM)
Low32 °F (Apr 16, 6:55 AM)39% (Apr 16, 6:25 PM)29.62 "Hg (Apr 21, 4:25 PM)
Average51 °F76%30.07 "Hg
* Reported Apr 6 5:25 PM — Apr 21 5:25 PM, Rotterdam, Weather by CustomWeather, © 2014

Note: Actual official high and low records may vary slightly from our data, if they occured in-between our weather recording intervals... More about our weather records

Advertising

Historic Weather Conditions — Data for Previous 24 hours

 ConditionsComfort  
Time TempWeatherWind HumidityBarometerVisibility
5:25 PM
Apr 21
57 °FClear.10 mph82%29.62 "HgN/A
4:55 PM57 °FClear.8 mph82%29.62 "HgN/A
4:25 PM57 °FPassing clouds.7 mph82%29.62 "HgN/A
3:55 PM57 °FScattered clouds.7 mph77%29.65 "HgN/A
3:25 PM57 °FClear.8 mph77%29.65 "HgN/A
2:55 PM59 °FScattered clouds.8 mph72%29.65 "HgN/A
2:25 PM59 °FClear.9 mph77%29.65 "HgN/A
1:55 PM59 °FClear.10 mph72%29.65 "HgN/A
1:25 PM59 °FClear.13 mph72%29.65 "HgN/A
12:55 PM59 °FCool.13 mph72%29.68 "HgN/A
12:25 PM61 °FClear.12 mph68%29.65 "HgN/A
11:55 AM61 °FClear.10 mph68%29.68 "HgN/A
11:25 AM61 °FClear.10 mph68%29.68 "HgN/A
10:55 AM61 °FClear.7 mph68%29.68 "HgN/A
10:25 AM59 °FClear.6 mph68%29.68 "HgN/A
9:55 AM59 °FClear.7 mph68%29.68 "HgN/A
9:25 AM57 °FCool.7 mph72%29.68 "HgN/A
8:55 AM55 °FClear.7 mph77%29.71 "HgN/A
8:25 AM52 °FClear.5 mph88%29.71 "HgN/A
7:55 AM50 °FClear.5 mph88%29.71 "HgN/A
7:25 AM48 °FClear.3 mph87%29.68 "HgN/A
6:55 AM46 °FClear.3 mph87%29.68 "HgN/A
6:25 AM48 °FClear.5 mph87%29.68 "HgN/A
5:55 AM48 °FCool.5 mph87%29.68 "HgN/A
5:25 AM50 °FCool.3 mph82%29.68 "HgN/A
4:55 AM48 °FCool.7 mph87%29.68 "HgN/A
4:25 AM50 °FCool.7 mph82%29.71 "HgN/A
3:55 AM54 °FCool.8 mph77%29.71 "HgN/A
3:25 AM55 °FCool.8 mph72%29.71 "HgN/A
2:55 AM55 °FCool.9 mph72%29.71 "HgN/A
2:25 AM55 °FCool.9 mph72%29.71 "HgN/A
1:55 AM57 °FCool.9 mph67%29.71 "HgN/A
1:25 AM57 °FCool.12 mph63%29.71 "HgN/A
12:55 AM57 °FCool.8 mph63%29.71 "HgN/A
12:25 AM57 °FCool.8 mph63%29.71 "HgN/A
11:55 PM
Apr 20
59 °FCool.8 mph63%29.71 "HgN/A
10:55 PM61 °FRefreshingly cool.12 mph59%29.71 "HgN/A
10:25 PM61 °FRefreshingly cool.10 mph59%29.71 "HgN/A
9:55 PM61 °FRefreshingly cool.10 mph59%29.68 "HgN/A
9:25 PM63 °FMild.12 mph56%29.68 "HgN/A
8:55 PM63 °FMild.13 mph59%29.68 "HgN/A
8:25 PM64 °FClear.13 mph56%29.65 "HgN/A
7:55 PM64 °FClear.12 mph60%29.65 "HgN/A
7:25 PM66 °FClear.14 mph56%29.65 "HgN/A
6:55 PM66 °FClear.14 mph56%29.65 "HgN/A
6:25 PM66 °FClear.15 mph56%29.65 "HgN/A
Weather by CustomWeather, © 2014

See weather overview